Welcome to the New NWS' Forecast!
Most changes are behind the scenes, but click here for differences you might notice.
Latest weather observations around

Prattville - Grouby Field (K1A9)

Using English Units (Switch to International System of Units)
Date/ Time (CDT) Wind (mph) Vis. (mi) Weather Sky Cond. Temp (°F) Rel. Humidity Wind Chill (°F) Heat Index (°F) Pressure Precip. (in)
Air Dwpt 6 hour Altimeter (inHg) Sea level (inHg) 1 hr 3 hr 6 hr
Max Min
Aug 17 04:15 Calm 10 Partly Cloudy SCT095 73 73     100%   74 30.04        
Aug 17 03:55 Calm 10 Partly Cloudy SCT095 73 73     100%   75 30.04        
Aug 17 03:35 Calm 10 Clear CLR 73 73     99%   75 30.04        
Aug 17 03:15 Calm 10 Clear CLR 74 73     98%   75 30.04        
Aug 17 02:55 Calm 10 Clear CLR 73 73     100%   75 30.04        
Aug 17 02:35 Calm 10 Clear CLR 74 73     99%   75 30.04        
Aug 17 02:15 Calm 10 Clear CLR 74 74     100%   76 30.04        
Aug 17 01:55 Calm 10 Clear CLR 74 74     98%   76 30.04        
Aug 17 01:35 Calm 10 Clear CLR 74 74     99%   76 30.04        
Aug 17 01:15 Calm 10 Clear CLR 75 74     99%   76 30.04        
Aug 17 00:55 Calm 10 Clear CLR 75 75     98%   77 30.03        
Aug 17 00:35 Calm 10 Clear CLR 76 75     98%   77 30.04        
Aug 17 00:15 Calm 10 Clear CLR 75 75     99%   77 30.04        
Aug 16 23:55 Calm 10 Clear CLR 76 75     96%   78 30.04        
Aug 16 23:35 Calm 10 Clear CLR 77 75     94%   79 30.06        
Aug 16 23:15 Calm 10 Clear CLR 78 75     92%   80 30.06        
Aug 16 22:55 Calm 10 Clear CLR 79 75     89%   82 30.07        
Aug 16 22:35 W 7 10 Partly Cloudy SCT065 SCT070 80 75     86%   85 30.07        
Aug 16 22:15 W 14 10 Mostly Cloudy BKN065 BKN075 81 76     86%   88 30.07        
Aug 16 21:55 W 8 10 Clear CLR 81 77     88%   88 30.07        
Aug 16 21:35 Calm 10 Clear CLR 79 78     96%   83 30.07        
Aug 16 21:15 Calm 10 Clear CLR 79 78     95%   83 30.06        
Aug 16 20:55 W 3 10 Clear CLR 79 78     96%   84 30.06        
Aug 16 20:35 Calm 10 Partly Cloudy SCT065 80 78     94%   86 30.05        
Aug 16 20:15 Calm 10 Clear CLR 80 78     93%   86 30.04        
Aug 16 19:55 Calm 10 Clear CLR 81 78     91%   89 30.03        
Aug 16 19:35 Calm 10 Clear CLR 82 78     87%   91 30.02        
Aug 16 19:15 Calm 10 Clear CLR 84 77     79%   94 30.02        
Aug 16 18:55 Calm 10 Clear CLR 87 75     67%   96 30.01        
Aug 16 18:35 Calm 10 Clear CLR 88 74     63%   97 30.01        
Aug 16 18:15 Calm 10 Clear CLR 89 75     63%   99 30.01        
Aug 16 17:55 W 5 10 Clear CLR 90 74     60%   99 30.01        
Aug 16 17:35 SW 3 10 Clear CLR 90 74     61%   99 30.01        
Aug 16 17:15 WSW 6 10 Clear CLR 90 74     61%   99 30.01        
Aug 16 16:55 SSW 5 10 Partly Cloudy SCT037 89 75     63%   99 30.01        
Aug 16 16:35 WSW 5 10 Clear CLR 90 75     61%   101 30.01        
Aug 16 16:15 W 5 10 Partly Cloudy SCT036 SCT046 90 74     60%   100 30.01        
Aug 16 15:55 W 5 10 Partly Cloudy SCT036 SCT043 SCT050 89 74     61%   98 30.01        
Aug 16 15:35 Calm 10 Clear CLR 88 74     64%   96 30.02        
Aug 16 15:15 W 6 10 Partly Cloudy SCT033 SCT041 SCT047 90 75     62%   100 30.02        
Aug 16 14:55 Calm 10 Partly Cloudy SCT033 SCT040 SCT046 88 75     65%   98 30.03        
Aug 16 14:35 SSW 3 10 Partly Cloudy SCT032 89 75     64%   98 30.04        
Aug 16 14:15 W 6 10 Partly Cloudy SCT032 SCT040 89 75     63%   99 30.05        
Aug 16 13:55 WSW 8 10 Mostly Cloudy BKN032 BKN042 89 75     65%   99 30.06        
Aug 16 13:35 W 7 10 Mostly Cloudy SCT034 BKN042 89 75     64%   100 30.06        
Aug 16 13:15 W 7 10 Mostly Cloudy BKN029 BKN034 87 75     68%   96 30.07        
Aug 16 12:55 NW 6 10 Mostly Cloudy BKN029 BKN034 86 76     71%   96 30.08        
Aug 16 12:35 W 5 10 Mostly Cloudy BKN027 BKN036 87 75     69%   97 30.08        
Aug 16 12:15 WSW 6 10 Partly Cloudy SCT025 SCT036 86 76     72%   96 30.09        
Aug 16 11:55 W 5 10 Partly Cloudy SCT023 86 75     70%   95 30.09        
Aug 16 11:35 W 3 10 Partly Cloudy SCT022 SCT026 84 75     74%   93 30.09        
Aug 16 11:15 WSW 5 10 Mostly Cloudy SCT017 BKN022 BKN028 83 76     79%   92 30.09        
Aug 16 10:55 Calm 10 Cloudy BKN017 OVC022 83 76     79%   91 30.1        
Aug 16 10:35 W 5 10 Mostly Cloudy BKN015 BKN021 82 75     79%   90 30.1        
Aug 16 10:15 Calm 10 Mostly Cloudy BKN013 82 76     83%   90 30.09        
Aug 16 09:55 Calm 10 Mostly Cloudy BKN011 81 76     84%   87 30.09        
Aug 16 09:35 WSW 5 10 Mostly Cloudy BKN011 79 75     88%   83 30.09        
Aug 16 09:15 SW 3 10 Mostly Cloudy BKN009 79 76     89%   83 30.09        
Aug 16 08:55 SSW 3 10 Mostly Cloudy BKN009 78 75     93%   79 30.09        
Aug 16 08:35 Calm 10 Cloudy OVC007 77 76     96%   79 30.09        
Aug 16 08:15 Calm 10 Cloudy OVC007 76 75     98%   78 30.09        
Aug 16 07:55 Calm 10 Cloudy OVC007 76 75     99%   77 30.09        
Aug 16 07:35 Calm 7 Cloudy OVC007 75 75     100%   77 30.09        
Aug 16 07:15 Calm 7 Cloudy OVC007 75 75     100%   77 30.08        
Aug 16 06:55 Calm 5 Fog/Mist OVC007 75 75     100%   77 30.08        
Aug 16 06:35 Calm 5 Fog/Mist OVC007 74 74     100%   76 30.07        
Aug 16 06:15 Calm 7 Cloudy OVC005 75 75     100%   77 30.06        
Aug 16 05:55 Calm 7 Cloudy OVC003 74 74     100%   76 30.06        
Aug 16 05:35 Calm 5 Fog/Mist OVC003 74 74     100%   76 30.05        
Aug 16 05:15 Calm 5 Fog/Mist OVC003 74 74     100%   76 30.04        
Aug 16 04:55 Calm 4 Fog/Mist OVC003 74 74     100%   76 30.04        
Aug 16 04:35 SSW 3 2.5 Fog/Mist OVC003 74 74     100%   76 30.03        
Aug 16 04:15 Calm 4 Fog/Mist OVC003 74 74     100%   76 30.03        
Aug 16 03:55 Calm 5 Fog/Mist OVC003 74 74     100%   76 30.01        
Aug 16 03:35 Calm 7 Cloudy OVC005 74 74     100%   76 30.01        
Aug 16 03:15 Calm 10 Cloudy OVC005 74 74     100%   76 30.01        
Aug 16 02:55 Calm 10 Cloudy OVC005 74 74     100%   76 30.01        
Aug 16 02:35 Calm 7 Cloudy OVC005 74 74     100%   76 30.01        
Aug 16 02:15 Calm 10 Cloudy OVC005 74 74     100%   76 30        
Aug 16 01:55 Calm 7 Cloudy OVC005 74 74     100%   75 30        
Aug 16 01:35 Calm 10 Cloudy OVC005 74 74     100%   75 30.01        
Aug 16 01:15 Calm 10 Mostly Cloudy BKN007 73 73     100%   75 30        
Aug 16 00:55 Calm 10 Mostly Cloudy BKN003 BKN009 73 73     100%   75 30       0
Aug 16 00:35 Calm 10 Cloudy OVC003 74 74     100%   75 30        
Aug 16 00:15 Calm 10 Partly Cloudy SCT003 74 74     100%   75 30        
Aug 15 23:55 Calm 7 Mostly Cloudy BKN003 74 74     100%   75 30        
Aug 15 23:35 Calm 10 Partly Cloudy SCT003 73 73     100%   75 29.99        
Aug 15 23:15 Calm 7 Clear CLR 73 73     100%   75 29.98        
Aug 15 22:55 Calm 10 Clear CLR 74 74     100%   76 29.99        
Aug 15 22:35 Calm 10 Clear CLR 74 74     100%   76 30        
Aug 15 22:15 Calm 10 Partly Cloudy SCT120 74 74     100%   76 30        
Aug 15 21:55 Calm 10 Partly Cloudy SCT120 75 75     100%   77 30   0 0  
Aug 15 21:35 W 5 10 Clear CLR 75 75     100%   77 30.01   0    
Aug 15 21:15 Calm 10 Partly Cloudy SCT002 74 74     100%   76 30   0    
Aug 15 20:55 Calm 10 Clear CLR 74 74     100%   76 29.99        
Aug 15 20:35 Calm 10 Light Rain CLR 74 74     100%   76 29.98        
Aug 15 20:15 Calm 10 Light Rain SCT095 74 74     100%   76 30        
Aug 15 19:55 Calm 10 Light Rain SCT010 SCT050 BKN100 74 74     100%   76 30   0    
Aug 15 19:35 Calm 10 Light Rain SCT065 SCT070 BKN100 74 74     100%   76 29.99   0    
Aug 15 19:15 Calm 7 Light Rain SCT055 BKN100 OVC120 75 75     100%   77 30.01   0    
Aug 15 18:55 Calm 7 Light Rain SCT012 SCT050 OVC110 75 75     100%   77 30.01   0   0
Aug 15 18:35 S 3 10 Rain SCT012 BKN050 OVC110 75 75     99%   77 30.01   0    
Aug 15 18:15 S 5 10 Mostly Cloudy SCT075 BKN110 77 75     93%   79 30        
Aug 15 17:55 WNW 9 10 Drizzle SCT031 SCT049 BKN075 77 74     90%   79 30        
Aug 15 17:35   10 Rain SCT022 BKN029 OVC048 78 74     88%   81 29.98        
Aug 15 17:15 WSW 11 10 Cloudy SCT022 BKN031 OVC041 83 76     78%   91 29.95        
Aug 15 16:55 SW 3 10 Mostly Cloudy BKN039 89 76     65%   101 29.93        
Aug 15 16:35 S 6 10 Clear CLR 91 75     60%   103 29.92        
Aug 15 16:15 S 6 10 Clear CLR 91 76     62%   104 29.93        
Aug 15 15:55 SSW 5 10 Clear CLR 92 76     61%   104 29.92        
Aug 15 15:35 Calm 10 Clear CLR 91 76     61%   103 29.93        
Aug 15 15:15 Calm 10 Clear CLR 90 77     66%   104 29.93        
Aug 15 14:55 WSW 3 10 Clear CLR 90 77     65%   102 29.93        
Aug 15 14:35 Calm 10 Partly Cloudy SCT030 90 77     65%   102 29.93        
Aug 15 14:15 Calm 10 Partly Cloudy SCT030 90 77     66%   103 29.94        
Aug 15 13:55 WSW 3 10 Partly Cloudy SCT030 SCT038 89 78     69%   102 29.95        
Aug 15 13:35 Calm 10 Partly Cloudy SCT026 SCT032 SCT038 88 77     70%   99 29.95        
Aug 15 13:15 Calm 10 Partly Cloudy SCT026 88 77     70%   101 29.96        
Aug 15 12:55 W 5 10 Partly Cloudy SCT022 89 77     70%   101 29.97        
Aug 15 12:35 W 6 10 Mostly Cloudy BKN024 BKN031 88 78     72%   101 29.98        
Aug 15 12:15 W 5 10 Mostly Cloudy BKN020 BKN028 86 77     75%   96 29.99        
Aug 15 11:55 WSW 5 10 Mostly Cloudy BKN020 BKN025 85 77     78%   95 30        
Aug 15 11:35 SW 3 10 Mostly Cloudy BKN018 BKN025 85 77     76%   96 30.01        
Aug 15 11:15 Calm 10 Cloudy BKN018 OVC023 84 76     78%   93 30.01        
Aug 15 10:55 WSW 5 10 Mostly Cloudy BKN016 84 77     78%   94 30        
Aug 15 10:35 WNW 3 10 Mostly Cloudy BKN012 82 76     81%   89 30        
Aug 15 10:15 SW 5 10 Cloudy OVC010 80 76     86%   86 30        
Aug 15 09:55 W 6 10 Cloudy OVC010 80 76     87%   86 30.01        
Aug 15 09:35 W 6 10 Mostly Cloudy BKN010 81 76     86%   87 30        
Aug 15 09:15 W 6 10 Cloudy OVC008 79 76     91%   83 29.99        
Aug 15 08:55 Calm 10 Cloudy OVC006 76 75     97%   78 29.99        
Aug 15 08:35 Calm 7 Cloudy OVC004 75 75     98%   77 29.99        
Aug 15 08:15 Calm 7 Cloudy BKN002 OVC010 74 74     100%   76 29.98        
Aug 15 07:55 S 3 5 Fog/Mist BKN002 OVC010 73 73     100%   75 29.98        
Aug 15 07:35 Calm 0.75 Fog/Mist OVC002 73 73     100%   75 29.98        
Aug 15 07:15 Calm 3 Fog/Mist OVC002 72 72     100%   74 29.97        
Aug 15 06:55 Calm 4 Fog/Mist OVC002 72 72     100%   73 29.96        
Aug 15 06:35 Calm 1.5 Fog/Mist SCT002 71 71     100%   72 29.95        
Aug 15 06:15 Calm 4 Fog/Mist CLR 72 72     100%   73 29.95        
Aug 15 05:55 Calm 5 Fog/Mist CLR 72 72     100%   73 29.94        
Aug 15 05:35 Calm 7 Clear CLR 72 72     100%   73 29.94        
Aug 15 05:15 Calm 7 Clear CLR 72 72     100%   73 29.94        
Aug 15 04:55 Calm 7 Clear CLR 72 72     100%   73 29.94        
Aug 15 04:35 Calm 4 Fog/Mist CLR 72 72     100%   74 29.94        
Aug 15 04:15 Calm 4 Fog/Mist CLR 72 72     100%   74 29.93        
Aug 15 03:55 Calm 7 Clear CLR 72 72     100%   74 29.93        
Aug 15 03:35 Calm 7 Clear CLR 72 72     100%   74 29.93        
Aug 15 03:15 Calm 7 Clear CLR 72 72     100%   74 29.92        
Aug 15 02:55 Calm 7 Clear CLR 73 73     100%   74 29.92        
Aug 15 02:35 Calm 7 Clear CLR 72 72     100%   74 29.92        
Aug 15 02:15 Calm 5 Fog/Mist CLR 72 72     100%   74 29.93        
Aug 15 01:55 Calm 5 Fog/Mist CLR 72 72     100%   74 29.93        
Aug 15 01:35 Calm 5 Fog/Mist CLR 73 73     100%   74 29.93        
Aug 15 01:15 Calm 7 Clear CLR 73 73     100%   75 29.93        
Aug 15 00:55 Calm 10 Clear CLR 73 73     100%   75 29.93        
Aug 15 00:35 Calm 10 Clear CLR 74 74     100%   76 29.93        
Aug 15 00:15 Calm 5 Fog/Mist CLR 74 74     100%   76 29.93        
Aug 14 23:55 Calm 7 Clear CLR 74 74     100%   76 29.93        
Aug 14 23:35 Calm 7 Clear CLR 74 74     100%   76 29.94        
Aug 14 23:15 Calm 7 Partly Cloudy SCT003 74 74     100%   76 29.95        
Aug 14 22:55 Calm 7 Mostly Cloudy BKN003 74 74     100%   76 29.95        
Aug 14 22:35 Calm 7 Clear CLR 74 74     100%   76 29.95        
Aug 14 22:15 Calm 10 Clear CLR 75 75     100%   77 29.96        
Aug 14 21:55 Calm 10 Partly Cloudy SCT004 75 75     100%   77 29.96        
Aug 14 21:35 Calm 7 Mostly Cloudy BKN004 76 76     100%   78 29.95        
Aug 14 21:15 Calm 7 Partly Cloudy SCT004 76 76     100%   78 29.95        
Aug 14 20:55 Calm 7 Clear CLR 76 76     100%   78 29.93        
Aug 14 20:35 Calm 10 Clear CLR 76 76     100%   78 29.93        
Aug 14 20:15 Calm 7 Clear CLR 76 76     100%   78 29.92        
Aug 14 19:55 Calm 10 Clear CLR 76 76     100%   78 29.91        
Aug 14 19:35 Calm 10 Clear   77 76     98%   79 29.92        
Aug 14 19:15 Calm 10 Clear   77 76     98%   79 29.93        
Aug 14 18:55 Calm 10 Clear   77 76     98%   79 29.93       0
Aug 14 18:35 Calm 10 Light Drizzle SCT090 SCT110 77 76     97%   79 29.92        
Aug 14 18:15 Calm 10 Light Rain BKN080 OVC100 76 76     98%   78 29.92        
Aug 14 17:55 Calm 10 Mostly Cloudy BKN110 76 76     98%   78 29.91        
Aug 14 17:35 WSW 3 10 Partly Cloudy SCT060 SCT120 77 75     94%   79 29.9        
Aug 14 17:15 WSW 3 10 Light Rain SCT048 SCT060 BKN095 77 76     95%   79 29.9        
Aug 14 16:55 Calm 10 Light Rain SCT048 SCT070 OVC095 77 75     94%   79 29.89   0    
Aug 14 16:35 WNW 11 10 Drizzle SCT050 SCT075 BKN095 78 76     93%   80 29.89        
Notice The following observation data may not be complete
Aug 14 16:15 W 15 10 Light Rain SCT011 SCT046 BKN065   76      %     29.88        
Aug 14 15:55 WNW 10 10 Mostly Cloudy BKN044 BKN050 BKN070 87 75     67%   97 29.86        
Aug 14 15:35 W 5 10 Partly Cloudy SCT043 SCT049 92 75     58%   104 29.85        
Aug 14 15:15 WSW 7 10 Partly Cloudy SCT046 92 74     56%   103 29.86        
Aug 14 14:55 W 9 10 Clear CLR 93 75     57%   105 29.86        
Aug 14 14:35 W 7 10 Clear CLR 92 77     60%   106 29.87        
Aug 14 14:15 W 8 10 Partly Cloudy SCT039 SCT050 SCT075 92 75     58%   102 29.88        
Aug 14 13:55 W 8 10 Cloudy SCT039 BKN050 OVC090 93 77     60%   107 29.9        
Aug 14 13:35 W 7 10 Mostly Cloudy SCT039 SCT050 BKN080 91 76     61%   104 29.9        
Aug 14 13:15 WSW 6 10 Partly Cloudy SCT037 SCT044 90 76     64%   103 29.91        
Aug 14 12:55 SSW 7 10 Partly Cloudy SCT037 SCT046 91 76     62%   104 29.91        
Aug 14 12:35 WSW 8 10 Clear   90 77     64%   103 29.92        
Aug 14 12:15 SW 7 10 Clear   91 76     62%   102 29.92        
Aug 14 11:55 W 8 10 Clear   90 77     64%   104 29.93        
Aug 14 11:35 W 3 10 Partly Cloudy SCT031 SCT040 90 76     65%   102 29.93        
Aug 14 11:15 Calm 10 Partly Cloudy SCT029 89 77     67%   102 29.93        
Aug 14 10:55 SSW 5 10 Partly Cloudy SCT027 89 77     68%   101 29.93        
Aug 14 10:35 S 6 10 Partly Cloudy SCT027 88 77     71%   100 29.93        
Aug 14 10:15 S 3 10 Clear CLR 87 77     73%   99 29.93        
Aug 14 09:55 Calm 10 Clear CLR 86 77     74%   97 29.93        
Aug 14 09:35 Calm 10 Clear CLR 86 77     75%   96 29.93        
Aug 14 09:15 Calm 10 Clear CLR 83 78     84%   92 29.93        
Aug 14 08:55 Calm 10 Clear CLR 81 77     88%   89 29.93        
Aug 14 05:55 Calm 7 Clear CLR 72 72     100%   74 29.92        
Aug 14 05:35 Calm 7 Clear CLR 72 72     100%   74 29.92        
Aug 14 05:15 Calm 5 Fog/Mist CLR 72 72     100%   74 29.92        
Aug 14 04:55 Calm 7 Clear CLR 73 73     100%   74 29.91        
Aug 14 04:35 Calm 7 Clear CLR 73 73     100%   75 29.9        
Aug 14 03:35 Calm 7 Clear CLR 73 73     100%   75 29.9        
Aug 14 02:55 Calm 7 Clear CLR 74 74     100%   75 29.9        
Aug 14 02:35 Calm 7 Clear CLR 74 74     100%   76 29.9        
Aug 14 02:15 Calm 7 Clear CLR 74 74     100%   76 29.9        
Aug 14 01:55 Calm 7 Clear CLR 74 74     100%   76 29.9        
Aug 14 00:35 Calm 7 Clear CLR 75 75     100%   77 29.92        
Aug 13 23:55 Calm 10 Clear CLR 75 75     100%   77 29.93        
Aug 13 23:35 Calm 10 Clear CLR 76 76     99%   78 29.94        
Aug 13 22:55 Calm 10 Clear CLR 76 76     99%   78 29.94        
Aug 13 22:35 Calm 10 Clear   77 77     99%   79 29.94        
Aug 13 22:15 Calm 10 Clear   77 77     99%   79 29.95        
Aug 13 21:55 Calm 10 Clear   78 77     98%   80 29.95        
Aug 13 21:35 WNW 3 10 Clear CLR 78 78     99%   80 29.94        
Aug 13 20:35 Calm 10 Clear CLR 79 78     97%   84 29.91        
Aug 13 19:35 Calm 10 Clear CLR 82 79     92%   91 29.91        
Aug 13 18:55 Calm 10 Clear CLR 87 79     78%   101 29.91        
Notice The following observation data may not be complete
Aug 13 18:35   10 Clear CLR          %              
Aug 13 17:55 Calm 10 Clear CLR 90 74     61%   99 29.9        
Aug 13 17:35 Calm 10 Partly Cloudy SCT044 90 74     58%   100 29.9        
Aug 13 17:15 N 3 10 Partly Cloudy SCT044 90 74     59%   100 29.9        
Aug 13 16:35 NNE 5 10 Partly Cloudy SCT046 92 74     57%   102 29.9        
Aug 13 16:15 WNW 5 10 Clear CLR 91 73     56%   100 29.9        
Aug 13 15:55 NW 3 10 Partly Cloudy SCT041 91 74     57%   101 29.9        
Aug 13 15:35 NW 6 10 Partly Cloudy SCT041 SCT050 92 74     57%   101 29.9        
Aug 13 14:55 W 5 10 Clear CLR 91 76     61%   103 29.91        
Aug 13 14:35 W 5 10 Clear CLR 91 75     61%   102 29.91        
Notice The following observation data may not be complete
Aug 13 14:15   10 Partly Cloudy SCT034          %              
Aug 13 13:35 Calm 10 Mostly Cloudy SCT034 BKN048 BKN055 89 75     65%   99 29.94        
Aug 13 13:15 W 3 10 Mostly Cloudy SCT032 BKN048 89 75     65%   99 29.95        
Aug 13 12:55 WSW 3 10 Partly Cloudy SCT032 SCT046 SCT050 88 76     67%   100 29.95        
Aug 13 11:55 Calm 10 Mostly Cloudy SCT031 BKN040 BKN048 87 76     70%   97 29.97        
Aug 13 11:35 Calm 10 Mostly Cloudy SCT026 BKN040 85 76     76%   94 29.97        
Aug 13 10:15 Calm 10 Partly Cloudy SCT016 83 76     78%   92 29.98        
Aug 13 08:55 Calm 10 Cloudy OVC033 79 76     90%   82 29.97        
Notice The following observation data may not be complete
Aug 13 08:35   10 Mostly Cloudy BKN033          %              
Aug 13 08:15 Calm 10 Partly Cloudy SCT033 76 75     98%   78 29.98        
Aug 13 07:35 Calm 10 Clear CLR 74 74     100%   76 29.97        
Aug 13 07:15 Calm 10 Clear CLR 73 73     100%   75 29.97        
Aug 13 06:35 Calm 7 Clear CLR 72 72     100%   74 29.95        
Aug 13 06:15 Calm 7 Clear CLR 72 72     100%   74 29.95        
Notice The following observation data may not be complete
Aug 13 05:35   10 Clear CLR          %              
Aug 13 05:15 Calm 10 Clear CLR 72 72     100%   74 29.93        
Aug 13 04:55 Calm 7 Clear CLR 73 73     100%   74 29.93        
Aug 13 04:35 Calm 3 Fog/Mist SCT002 73 73     100%   75 29.93        
Aug 13 03:55 Calm 1.25 Fog/Mist OVC002 73 73     100%   75 29.92        
Aug 13 03:35 Calm 7 Cloudy OVC002 73 73     100%   75 29.91        
Aug 13 03:15 Calm 7 Mostly Cloudy BKN002 73 73     100%   75 29.91        
Aug 13 02:35 Calm 10 Partly Cloudy SCT002 73 73     100%   75 29.91        
Aug 13 02:15 Calm 10 Partly Cloudy SCT002 SCT110 73 73     100%   75 29.91        
Notice The following observation data may not be complete
Aug 13 01:35   0.5 Fog OVC002          %              
Aug 13 01:15 Calm 7 Cloudy OVC002 74 74     100%   76 29.93        
Aug 13 00:55 Calm 10 Cloudy OVC002 74 74     100%   76 29.93        
Notice The following observation data may not be complete
Aug 13 00:35   10 Partly Cloudy SCT002          %              
Notice The following observation data may not be complete
Aug 13 00:15   5 Fog/Mist CLR          %              
Aug 12 23:55 Calm 7 Clear CLR 75 75     100%   77 29.95        
Aug 12 23:35 Calm 5 Fog/Mist CLR 75 75     100%   77 29.95        
Aug 12 23:15 Calm 10 Clear CLR 75 75     100%   77 29.95        
Aug 12 22:55 Calm 10 Clear CLR 76 76     100%   78 29.95        
Aug 12 22:35 Calm 10 Clear CLR 76 76     100%   78 29.95        
Aug 12 22:15 Calm 10 Clear CLR 76 76     100%   78 29.95        
Aug 12 21:35 Calm 10 Clear CLR 76 76     100%   78 29.95        
Aug 12 21:15 Calm 10 Clear CLR 76 76     100%   78 29.93        
Aug 12 20:35 Calm 10 Partly Cloudy SCT080 76 76     100%   78 29.93        
Aug 12 20:15 Calm 10 Partly Cloudy SCT080 77 77     100%   79 29.92        
Aug 12 19:55 W 5 10 Partly Cloudy SCT080 78 78     99%   80 29.93        
Aug 12 19:35 Calm 10 Partly Cloudy SCT090 78 77     97%   80 29.93        
Aug 12 19:15 Calm 10 Partly Cloudy SCT080 SCT100 78 77     97%   80 29.92        
Aug 12 18:35 Calm 10 Light Rain SCT037 BKN090 OVC110 77 76     98%   79 29.92   0    
Aug 12 18:15 ENE 3 4 Heavy Rain SCT010 BKN070 OVC090 75 75     99%   77 29.93   0    
Aug 12 17:55 NNE 10 10 Light Rain SCT010 BKN030 OVC040 76 76     97%   78 29.93   0    
Aug 12 17:35 N 11 10 Cloudy BKN030 OVC036 80 74     81%   85 29.93        
Aug 12 16:55 SSW 6 10 Partly Cloudy SCT038 90 76     63%   102 29.91        
Aug 12 15:55 Calm 10 Partly Cloudy SCT039 SCT047 SCT055 88 75     65%   99 29.91        
Notice The following observation data may not be complete
Aug 12 15:15   10 Mostly Cloudy SCT037 BKN055          %              
Notice The following observation data may not be complete
Aug 12 14:35   10 Partly Cloudy SCT034 SCT040          %              
Aug 12 13:55 SSE 3 10 Mostly Cloudy SCT030 BKN050 BKN065 88 76     68%   99 29.96        
Aug 12 13:15 SSW 3 10 Cloudy SCT028 OVC042 87 76     70%   98 29.97        
Aug 12 12:35 S 3 10 Mostly Cloudy SCT025 BKN042 BKN047 87 77     72%   98 29.98        
Aug 12 11:55 SSE 5 10 Partly Cloudy SCT026 SCT032 SCT038 86 76     72%   97 29.98        
Aug 12 09:35 Calm 10 Cloudy OVC014 81 76     85%   86 29.98        
Aug 12 09:15 Calm 10 Cloudy OVC014 80 75     87%   84 29.99        
Aug 12 08:35 Calm 10 Cloudy OVC010 78 76     92%   80 29.99        
Aug 12 08:15 Calm 10 Cloudy OVC010 77 76     95%   79 29.99        
Aug 12 02:55 Calm 7 Cloudy OVC004 74 74     100%   75 29.95        
Aug 12 02:35 Calm 7 Cloudy OVC004 73 73     100%   75 29.95        
Aug 12 02:15 Calm 7 Cloudy OVC004 73 73     100%   75 29.95        
Aug 12 01:55 Calm 10 Partly Cloudy SCT004 73 73     100%   75 29.95        
Aug 12 01:35 Calm 10 Partly Cloudy SCT004 73 73     100%   75 29.96        
Aug 11 23:55 Calm 5 Fog/Mist CLR 74 74     100%   76 29.98        
Notice The following observation data may not be complete
Aug 11 23:15   10 Clear CLR          %              
Notice The following observation data may not be complete
Aug 11 22:15   10 Clear CLR          %              
Aug 11 21:35 Calm 10 Clear CLR 76 76     99%   78 30        
Aug 11 21:15 Calm 10 Clear CLR 76 76     99%   78 30        
Aug 11 20:55 Calm 10 Partly Cloudy SCT027 78 76     95%   79 30        
Aug 11 12:15 Calm 10 Cloudy BKN014 OVC020 80 75     86%   84 30.09        
Aug 11 09:35 Calm 10 Cloudy BKN007 OVC011 75 74     98%   76 30.11        
Aug 11 09:15 Calm 7 Cloudy OVC007 74 74     98%   76 30.11        
Aug 11 08:55 Calm 5 Fog/Mist OVC003 74 74     100%   76 30.11        
Aug 11 08:35 Calm 5 Fog/Mist OVC003 73 73     100%   75 30.11        
Aug 11 08:15 Calm 3 Fog/Mist OVC003 73 73     100%   75 30.11        
Aug 11 07:55 Calm 5 Fog/Mist OVC003 72 72     100%   74 30.1        
Aug 11 07:35 Calm 2.5 Fog/Mist OVC003 72 72     100%   74 30.09        
Aug 11 06:55 Calm 0.25 Fog OVC003 72 72     100%   74 30.09        
Aug 11 06:35 Calm 1.5 Clear   72 72     100%   74 30.09        
Aug 11 06:15 Calm 0.75 Clear   72 72     100%   74 30.08        
Aug 11 05:55 Calm 1.5 Clear   72 72     100%   74 30.07        
Aug 11 05:35 Calm 4 Fog/Mist OVC003 72 72     100%   74 30.07        
Aug 11 05:15 Calm 5 Fog/Mist OVC003 72 72     100%   74 30.07        
Aug 11 04:55 Calm 5 Fog/Mist OVC003 73 73     100%   74 30.06        
Aug 11 04:35 Calm 7 Cloudy OVC003 73 73     100%   74 30.06        
Aug 11 04:15 Calm 7 Cloudy OVC003 73 73     100%   74 30.05        
Aug 11 03:55 Calm 7 Cloudy OVC003 73 73     100%   75 30.05        
Aug 11 03:35 Calm 5 Fog/Mist OVC003 73 73     100%   75 30.05        
Aug 11 03:15 Calm 7 Cloudy OVC003 72 72     100%   74 30.05        
Aug 11 02:55 Calm 7 Cloudy OVC003 73 73     100%   74 30.06        
Aug 11 02:35 Calm 7 Cloudy OVC003 73 73     100%   74 30.06        
Aug 11 02:15 Calm 10 Cloudy OVC003 73 73     100%   75 30.07        
Aug 11 01:55 Calm 10 Cloudy OVC003 72 72     100%   74 30.08        
Aug 11 01:35 Calm 10 Cloudy BKN003 OVC120 73 73     100%   75 30.09        
Aug 11 01:15 Calm 10 Cloudy BKN003 OVC120 73 73     100%   75 30.1        
Aug 11 00:55 Calm 10 Cloudy OVC003 73 73     100%   75 30.11   0   0
Aug 11 00:35 Calm 10 Cloudy OVC003 73 73     100%   75 30.12        
Aug 11 00:15 Calm 10 Cloudy OVC003 73 73     100%   75 30.12        
Aug 10 23:55 E 3 10 Cloudy OVC003 73 73     100%   75 30.12        
Aug 10 23:35 Calm 10 Mostly Cloudy BKN003 BKN110 73 73     100%   75 30.12        
Aug 10 23:15 Calm 10 Partly Cloudy SCT003 73 73     100%   75 30.12        
Aug 10 22:55 Calm 10 Clear CLR 73 73     100%   75 30.12        
Aug 10 22:35 Calm 10 Clear CLR 73 73     100%   75 30.12        
Aug 10 22:15 Calm 10 Clear CLR 73 73     100%   75 30.12        
Aug 10 21:55 E 3 10 Mostly Cloudy BKN014 BKN028 73 73     100%   75 30.12   0 0  
Aug 10 21:35 NE 3 10 Light Rain BKN016 BKN075 BKN090 73 73     100%   75 30.12   0    
Aug 10 21:15 Calm 10 Light Rain SCT065 SCT110 73 73     100%   75 30.11   0    
Aug 10 20:55 WNW 5 10 Light Rain SCT065 SCT090 SCT110 73 73     100%   75 30.11   0    
Aug 10 20:35 W 3 10 Drizzle SCT003 BKN040 BKN070 73 73     100%   75 30.11   0    
Aug 10 20:15 Calm 10 Light Rain SCT012 BKN042 OVC100 73 73     100%   75 30.12   0    
Aug 10 19:55 Calm 5 Rain SCT060 SCT070 OVC100 73 73     100%   75 30.13   0    
Aug 10 19:35 Calm 10 Rain SCT006 BKN055 OVC100 73 73     100%   75 30.13   0    
Aug 10 19:15 SE 5 7 Heavy Rain BKN006 BKN018 OVC049 73 73     100%   75 30.14   0    
Aug 10 18:55 SSE 5 2 Rain BKN008 BKN031 OVC050 73 73     100%   75 30.13   0   1
Notice The following observation data may not be complete
Aug 10 18:35   2.5 Rain BKN008 BKN018 OVC070          %         0    
Aug 10 18:15 SW 6 10 Light Rain SCT046 BKN075 OVC100 73 72     96%   75 30.12   0    
Aug 10 17:55 SSW 6 2.5 Heavy Rain SCT015 SCT030 OVC047 74 71     91%   76 30.08   1    
Aug 10 17:35 W 9 0.5 Heavy Rain BKN008 BKN021 OVC033 74 73     95%   76 30.08   0    
Aug 10 17:15   10 Light Rain SCT028 BKN034 OVC055 78 75     89%   80 30.05        
Aug 10 16:55 NNE 8 10 Cloudy SCT036 BKN055 OVC090 86 76     71%   96 30.04        
Aug 10 16:35 SSW 3 10 Partly Cloudy SCT080 SCT100 88 76     69%   99 30.03        
Aug 10 16:15 S 3 10 Clear CLR 88 76     66%   99 30.03        
Aug 10 15:55 SSE 3 10 Partly Cloudy SCT075 SCT095 86 77     73%   98 30.05        
Aug 10 15:35 SSE 5 10 Mostly Cloudy SCT043 SCT060 BKN075 88 77     70%   101 30.05        
Aug 10 15:15 SSW 5 10 Partly Cloudy SCT041 SCT100 86 77     75%   98 30.06        
Aug 10 14:55 Calm 10 Mostly Cloudy SCT039 BKN080 90 74     59%   100 30.06        
Aug 10 14:35 Calm 10 Mostly Cloudy BKN037 BKN080 89 75     63%   100 30.06        
Aug 10 14:15 WSW 3 10 Partly Cloudy SCT033 90 75     63%   101 30.07        
Aug 10 13:55 Calm 10 Partly Cloudy SCT035 SCT043 90 76     65%   102 30.08        
Aug 10 13:35 Calm 10 Mostly Cloudy BKN035 BKN043 87 75     69%   97 30.09        
Aug 10 13:15 Calm 10 Mostly Cloudy SCT030 SCT035 BKN050 88 75     65%   97 30.1        
Aug 10 12:55 Calm 10 Partly Cloudy SCT035 SCT043 SCT050 89 76     67%   101 30.11        
Aug 10 12:35 Calm 10 Mostly Cloudy SCT026 SCT030 BKN095 87 76     69%   97 30.13        
Aug 10 12:15 Calm 10 Mostly Cloudy SCT026 SCT033 BKN045 85 75     73%   94 30.14        
Aug 10 11:55 Calm 10 Clear CLR 85 76     73%   95 30.14        
Aug 10 11:35 Calm 10 Partly Cloudy SCT017 SCT028 SCT035 84 77     80%   94 30.15        
Aug 10 11:15 Calm 10 Mostly Cloudy SCT017 SCT023 BKN028 83 77     81%   92 30.16        
Aug 10 10:55 Calm 10 Cloudy BKN017 OVC023 82 76     82%   89 30.16        
Aug 10 10:35 Calm 10 Cloudy OVC015 82 76     82%   88 30.16        
Aug 10 10:15 Calm 10 Cloudy OVC015 81 76     84%   88 30.15        
Aug 10 09:55 Calm 10 Cloudy OVC011 80 75     85%   86 30.15        
Aug 10 09:35 E 3 10 Cloudy BKN011 OVC016 81 76     85%   86 30.14        
Aug 10 09:15 E 3 10 Mostly Cloudy BKN008 BKN017 80 76     87%   85 30.14        
Aug 10 08:55 E 3 10 Mostly Cloudy BKN006 78 75     91%   81 30.14        
Aug 10 08:35 Calm 10 Cloudy OVC006 77 75     94%   79 30.14        
Aug 10 08:15 Calm 7 Cloudy OVC004 76 75     99%   78 30.14        
Aug 10 07:55 Calm 5 Fog/Mist OVC002 74 74     100%   76 30.14        
Aug 10 07:35 Calm 5 Fog/Mist OVC002 73 73     100%   75 30.14        
Aug 10 07:15 Calm 3 Fog/Mist OVC002 73 73     100%   75 30.13        
Aug 10 06:55 Calm 0.5 Fog OVC002 72 72     100%   74 30.13        
Aug 10 06:35 Calm 1 Fog/Mist OVC002 72 72     100%   74 30.12        
Aug 10 06:15 Calm 10 Cloudy OVC006 72 72     100%   73 30.11        
Aug 10 05:55 Calm 7 Cloudy OVC006 72 72     100%   73 30.11        
Aug 10 05:35 Calm 7 Cloudy OVC006 72 72     100%   73 30.1        
Aug 10 05:15 Calm 7 Mostly Cloudy BKN006 72 72     100%   73 30.1        
Aug 10 04:55 Calm 10 Partly Cloudy SCT006 SCT026 72 72     100%   73 30.1        
Aug 10 04:35 Calm 10 Partly Cloudy SCT007 72 72     100%   74 30.1        
Aug 10 04:15 Calm 10 Partly Cloudy SCT007 72 72     100%   74 30.1        
Aug 10 03:55 Calm 10 Partly Cloudy SCT007 72 72     100%   74 30.1        
Aug 10 03:35 NE 3 10 Clear CLR 72 72     100%   74 30.1        
Aug 10 03:15 Calm 10 Clear CLR 72 72     100%   74 30.1        
Aug 10 02:55 Calm 10 Clear CLR 73 73     100%   74 30.11        
Aug 10 02:35 Calm 10 Clear CLR 73 73     100%   75 30.11        
Aug 10 02:15 Calm 10 Clear CLR 73 73     100%   75 30.11        
Aug 10 01:55 Calm 10 Partly Cloudy SCT015 SCT080 74 74     100%   75 30.12        
Aug 10 01:35 Calm 10 Cloudy BKN015 BKN070 OVC080 74 74     99%   76 30.12        
Aug 10 01:15 Calm 10 Cloudy BKN015 BKN070 OVC080 74 74     100%   76 30.12        
Aug 10 00:55 E 3 10 Cloudy BKN015 OVC070 74 74     99%   76 30.13       0
Aug 10 00:35 ENE 3 10 Mostly Cloudy BKN015 74 74     100%   76 30.12        
Aug 10 00:15 ENE 5 10 Partly Cloudy SCT029 SCT040 74 74     99%   76 30.12        
Aug 09 23:55 Calm 10 Mostly Cloudy SCT028 SCT033 BKN040 74 74     99%   76 30.13        
Aug 09 23:35 Calm 10 Mostly Cloudy BKN033 BKN042 75 75     100%   77 30.12        
Aug 09 23:15 Calm 10 Cloudy BKN032 BKN038 OVC045 75 75     100%   77 30.12        
Aug 09 22:55 Calm 10 Light Rain OVC032 75 75     100%   77 30.13        
Aug 09 22:35 Calm 10 Partly Cloudy SCT034 75 75     100%   77 30.13        
Aug 09 22:15 Calm 10 Partly Cloudy SCT070 SCT090 76 76     100%   78 30.13        
Aug 09 21:55 Calm 10 Mostly Cloudy SCT043 SCT070 BKN120 76 75     99%   77 30.12   0 0  
Aug 09 21:35 NNW 5 10 Light Rain SCT040 BKN095 OVC120 76 76     99%   78 30.12   0    
Aug 09 21:15 Calm 10 Light Rain SCT039 BKN070 OVC095 77 75     94%   79 30.11   0    
Aug 09 20:55 Calm 10 Cloudy BKN039 BKN050 OVC090 78 74     88%   80 30.11        
Aug 09 20:35 ENE 6 10 Mostly Cloudy BKN039 BKN044 BKN075 79 74     86%   82 30.1        
Aug 09 20:15 NE 8 10 Mostly Cloudy SCT041 BKN065 BKN075 80 74     84%   84 30.09        
Aug 09 19:55 Calm 10 Mostly Cloudy SCT060 BKN075 80 76     87%   85 30.09        
Aug 09 19:35 NNE 5 10 Mostly Cloudy BKN060 BKN085 81 76     86%   87 30.08        
Aug 09 19:15 Calm 10 Partly Cloudy SCT085 81 79     92%   90 30.07        
Aug 09 18:55 Calm 10 Clear CLR 81 77     89%   88 30.05        
Aug 09 18:35 Calm 10 Clear CLR 84 75     75%   92 30.04        
Aug 09 18:15 Calm 10 Clear CLR 86 74     66%   94 30.04        
Aug 09 17:55 Calm 10 Clear CLR 85 75     71%   94 30.06        
Aug 09 17:35 Calm 10 Clear CLR 85 74     70%   94 30.06        
Aug 09 17:15 Calm 10 Clear CLR 86 74     69%   94 30.05        
Aug 09 16:55 Calm 10 Partly Cloudy SCT030 87 74     67%   95 30.05        
Aug 09 16:35 Calm 10 Clear CLR 87 75     67%   97 30.04        
Aug 09 16:15 SSE 3 10 Partly Cloudy SCT048 SCT060 86 74     67%   95 30.04        
Aug 09 15:55 Calm 10 Mostly Cloudy SCT036 SCT044 BKN050 85 75     71%   94 30.04        
Aug 09 15:35 Calm 10 Cloudy SCT025 BKN036 OVC060 85 75     72%   93 30.05        
Aug 09 15:15 S 3 10 Mostly Cloudy SCT022 BKN029 85 76     74%   95 30.05        
Aug 09 14:55 Calm 10 Partly Cloudy SCT022 85 76     73%   95 30.05        
Aug 09 14:35 S 3 10 Clear CLR 84 76     75%   93 30.06        
Aug 09 14:15 SSW 3 10 Partly Cloudy SCT017 SCT026 SCT033 83 76     77%   92 30.07        
Aug 09 13:55 SSW 3 10 Light Rain BKN015 BKN026 BKN033 84 77     80%   93 30.08        
Aug 09 13:35 SSE 3 10 Mostly Cloudy BKN015 BKN035 BKN044 82 76     82%   90 30.08        
Aug 09 13:15 SSE 3 10 Mostly Cloudy BKN015 83 77     82%   91 30.09        
Aug 09 12:55 SSE 3 10 Mostly Cloudy SCT017 BKN120 81 76     83%   88 30.1       0
Aug 09 12:35 Calm 10 Light Rain SCT015 SCT035 SCT050 81 76     83%   87 30.1        
Aug 09 12:15 Calm 10 Mostly Cloudy BKN013 BKN055 81 76     85%   87 30.11        
Aug 09 11:55 Calm 10 Partly Cloudy SCT011 SCT055 SCT090 81 76     85%   87 30.11        
Aug 09 11:35 Calm 10 Mostly Cloudy SCT011 BKN100 BKN120 80 75     86%   85 30.11        
Aug 09 11:15 Calm 10 Cloudy BKN009 OVC110 79 76     89%   83 30.11        
Aug 09 10:55 Calm 10 Cloudy BKN009 BKN015 OVC120 79 76     91%   83 30.11        
Aug 09 10:35 Calm 10 Light Rain BKN009 BKN013 OVC120 78 76     93%   80 30.11        
Aug 09 10:15 Calm 10 Light Rain BKN007 BKN036 OVC120 77 75     93%   79 30.11        
Aug 09 10:00 Calm 10 Mostly Cloudy BKN007 BKN110 77 75     93%   79 30.11        
Aug 09 09:35 Calm 10 Mostly Cloudy SCT005 BKN110 77 76     95%   79 30.1        
Aug 09 09:15 Calm 10 Partly Cloudy SCT005 SCT041 SCT120 76 75     96%   78 30.1        
Aug 09 08:55 ESE 3 10 Mostly Cloudy SCT005 BKN041 76 75     97%   78 30.09        
Aug 09 08:35 Calm 10 Partly Cloudy SCT003 SCT043 75 75     99%   77 30.09        
Aug 09 08:15 Calm 10 Partly Cloudy SCT041 74 74     100%   76 30.09        
Aug 09 07:55 Calm 10 Light Drizzle SCT041 SCT100 74 74     100%   76 30.08   0    
Aug 09 07:35 Calm 10 Light Rain SCT043 SCT110 73 73     100%   75 30.08        
Aug 09 07:15 Calm 7 Light Rain SCT026 SCT041 BKN110 72 72     100%   74 30.08        
Aug 09 06:55 Calm 5 Light Rain SCT026 SCT042 BKN110 72 72     100%   74 30.07   0   0
Aug 09 06:35 Calm 7 Light Rain SCT027 SCT055 BKN110 72 72     100%   73 30.07   0    
Aug 09 06:15 Calm 7 Partly Cloudy SCT120 72 72     100%   73 30.07        
Aug 09 05:55 Calm 7 Partly Cloudy SCT021 72 72     100%   73 30.07        
Aug 09 05:35 Calm 7 Partly Cloudy SCT021 SCT120 72 72     100%   73 30.06        
Aug 09 05:15 Calm 7 Mostly Cloudy SCT002 SCT025 BKN120 72 72     100%   73 30.06        
Aug 09 04:55 Calm 7 Mostly Cloudy BKN002 BKN007 BKN023 72 72     100%   73 30.06        
Aug 09 04:35 Calm 7 Clear   72 72     100%   73 30.06        
Aug 09 04:15 Calm 7 Clear   72 72     100%   73 30.05        
Aug 09 03:55 Calm 7 Clear   72 72     100%   73 30.05        
Aug 09 03:35 Calm 7 Partly Cloudy SCT004 72 72     100%   73 30.04        
Aug 09 03:15 Calm 7 Partly Cloudy SCT002 72 72     100%   73 30.04        
Aug 09 02:55 Calm 7 Clear CLR 72 72     100%   73 30.04        
Aug 09 02:35 Calm 7 Clear CLR 72 72     100%   73 30.03        
Aug 09 02:15 Calm 7 Partly Cloudy SCT002 72 72     100%   73 30.03        
Aug 09 01:55 Calm 7 Clear CLR 72 72     100%   73 30.03        
Aug 09 01:35 Calm 10 Clear CLR 72 72     100%   73 30.03        
Aug 09 01:15 Calm 10 Clear CLR 72 72     100%   74 30.04        
Aug 09 00:55 Calm 10 Clear CLR 72 72     100%   73 30.04       0
Aug 09 00:35 Calm 10 Clear CLR 72 72     100%   73 30.05        
Aug 09 00:15 Calm 10 Partly Cloudy SCT041 72 72     100%   74 30.06        
Aug 08 23:55 Calm 10 Partly Cloudy SCT041 72 72     100%   74 30.06        
Aug 08 23:35 Calm 10 Mostly Cloudy SCT032 BKN039 72 72     100%   74 30.05        
Aug 08 23:15 Calm 10 Cloudy BKN033 OVC039 72 72     100%   74 30.06        
Aug 08 22:55 Calm 10 Cloudy BKN031 OVC039 72 72     100%   74 30.06        
Aug 08 22:35 Calm 10 Cloudy SCT004 BKN031 OVC037 72 72     100%   74 30.05        
Aug 08 22:15 Calm 10 Mostly Cloudy BKN004 72 72     100%   74 30.04        
Aug 08 21:55 Calm 7 Cloudy OVC004 72 72     100%   73 30.03     0  
Aug 08 21:35 Calm 7 Mostly Cloudy BKN004 72 72     100%   74 30.02        
Aug 08 21:15 Calm 10 Light Rain BKN004 BKN042 OVC110 72 72     100%   74 30.01        
Aug 08 20:55 Calm 10 Light Rain SCT075 SCT110 72 72     100%   74 30.01   0    
Aug 08 20:35 Calm 10 Rain SCT004 SCT110 72 72     100%   74 30.01        
Aug 08 20:15 Calm 10 Partly Cloudy SCT004 72 72     100%   74 30.01        
Aug 08 19:55 Calm 10 Cloudy BKN004 OVC110 72 72     100%   74 30.02        
Aug 08 19:35 Calm 10 Light Drizzle SCT004 SCT060 OVC110 72 72     100%   74 30.03        
Aug 08 19:15 Calm 10 Light Rain SCT007 BKN090 OVC110 72 72     100%   74 30.03        
Aug 08 18:55 Calm 10 Light Drizzle SCT003 SCT040 BKN065 72 72     100%   74 30.03   0   0
Aug 08 18:35 Calm 7 Light Rain SCT065 SCT070 OVC095 72 72     100%   74 30.02   0    
Aug 08 18:15 Calm 4 Rain OVC095 72 72     99%   74 30.01   0    
Aug 08 17:55 WSW 3 5 Rain SCT006 SCT022 OVC095 72 72     98%   74 30.01   0    
Aug 08 17:35 WSW 8 5 Heavy Rain SCT007 BKN065 OVC095 74 73     96%   76 30.02   0    
Aug 08 17:15 WSW 3 4 Rain SCT021 BKN070 OVC095 76 76     100%   78 30.02   0    
Aug 08 16:55 W 3 5 Rain SCT050 BKN070 BKN100 77 76     98%   79 30.01   0    
Aug 08 16:35 Calm 10 Light Rain SCT075 SCT110 78 75     91%   80 30.01        
Aug 08 16:15 Calm 10 Rain SCT041 SCT055 SCT075 78 75     90%   81 29.99        
Aug 08 15:55 Calm 10 Partly Cloudy SCT075 78 75     90%   81 29.99   0 0  
Aug 08 15:35 Calm 10 Partly Cloudy SCT032 SCT040 SCT050 79 75     90%   82 30   0    
Aug 08 15:15 Calm 10 Light Rain SCT034 SCT040 BKN055 79 75     88%   82 30.01        
Aug 08 14:55 Calm 10 Partly Cloudy SCT009 SCT065 78 75     88%   81 30.01        
Aug 08 14:15 Calm 10 Cloudy SCT007 BKN070 OVC080 77 75     94%   79 30.03        
Aug 08 13:35 Calm 5 Light Rain SCT010 BKN015 OVC065 77 75     95%   79 30.04   0    
Aug 08 13:15 Calm 7 Cloudy SCT010 BKN015 OVC060 77 76     96%   79 30.04        
Aug 08 12:55 Calm 7 Light Rain SCT015 BKN048 OVC070 77 74     91%   79 30.05       0
Aug 08 12:35 Calm 7 Light Rain BKN013 OVC048 78 75     91%   79 30.05        
Aug 08 12:15 Calm 10 Light Rain OVC013 77 74     90%   79 30.05        
Aug 08 11:55 Calm 10 Cloudy BKN011 OVC065 78 73     87%   79 30.05        
Aug 08 11:35 Calm 10 Cloudy SCT009 OVC075 77 74     90%   79 30.05        
Aug 08 11:15 Calm 10 Cloudy BKN009 OVC075 77 74     91%   78 30.05        
Aug 08 10:55 Calm 10 Cloudy BKN009 OVC065 76 74     94%   78 30.06        
Aug 08 10:35 Calm 10 Mostly Cloudy SCT011 BKN065 BKN120 76 74     92%   78 30.05        
Aug 08 10:15 Calm 10 Cloudy SCT006 BKN011 OVC050 75 73     94%   77 30.05        
Aug 08 09:55 Calm 10 Light Rain OVC006 75 74     96%   77 30.04   0 0  
Aug 08 09:35 Calm 10 Light Rain OVC006 75 74     96%   76 30.04   0    
Aug 08 09:15 Calm 10 Light Rain BKN006 BKN046 74 74     98%   76 30.03        
Aug 08 08:55 Calm 10 Light Drizzle SCT006 SCT037 SCT044 74 74     98%   76 30.03        
Aug 08 08:35 Calm 10 Light Rain SCT007 SCT039 BKN050 74 74     99%   76 30.03        
Aug 08 08:15 WNW 3 10 Rain BKN003 BKN018 OVC055 74 74     100%   76 30.03        
Aug 08 07:55 Calm 10 Drizzle SCT003 SCT042 BKN050 74 74     100%   75 30.03        
Aug 08 07:35 Calm 10 Partly Cloudy SCT050 SCT065 SCT100 73 73     100%   75 30.02        
Aug 08 07:15 Calm 10 Partly Cloudy SCT120 73 73     100%   74 30.01        
Aug 08 06:55 Calm 10 Partly Cloudy SCT110 72 72     100%   74 30.01        
Aug 08 06:35 Calm 10 Clear CLR 72 72     100%   74 30.01        
Aug 08 06:15 Calm 7 Clear CLR 72 72     100%   74 30        
Aug 08 05:55 Calm 10 Partly Cloudy SCT003 72 72     100%   74 30        
Aug 08 05:35 Calm 10 Partly Cloudy SCT003 72 72     100%   74 30        
Aug 08 05:15 Calm 10 Clear CLR 72 72     100%   74 30        
Aug 08 04:55 Calm 10 Clear CLR 72 72     100%   74 29.99        
Aug 08 04:35 Calm 10 Clear CLR 72 72     100%   74 29.98        
Aug 08 04:15 Calm 10 Clear CLR 72 72     100%   74 29.98        
Aug 08 03:55 Calm 10 Clear CLR 73 73     100%   74 29.98        
Aug 08 03:35 Calm 10 Clear CLR 73 73     100%   74 29.98        
Aug 08 03:15 Calm 7 Clear CLR 73 73     100%   74 29.99        
Aug 08 02:55 Calm 10 Clear CLR 73 73     100%   74 29.98        
Aug 08 02:35 Calm 7 Clear CLR 73 73     100%   74 29.98        
Aug 08 02:15 Calm 10 Clear CLR 73 73     100%   74 29.98        
Aug 08 01:55 Calm 7 Clear CLR 72 72     100%   74 29.98        
Aug 08 01:35 Calm 7 Partly Cloudy SCT120 72 72     100%   74 29.99        
Aug 08 01:15 Calm 10 Partly Cloudy SCT120 73 73     100%   74 29.99        
Aug 08 00:55 Calm 10 Clear CLR 73 73     100%   75 30       0
Aug 08 00:35 Calm 10 Clear CLR 73 73     100%   75 30        
Aug 08 00:15 Calm 10 Clear CLR 73 73     100%   75 30        
Aug 07 23:55 WNW 3 10 Clear CLR 74 74     100%   75 30.01        
Aug 07 23:35 Calm 10 Clear CLR 74 74     100%   76 30.01        
Aug 07 23:15 Calm 10 Partly Cloudy SCT120 74 74     100%   76 30.02        
Aug 07 22:55 Calm 10 Partly Cloudy SCT120 74 74     100%   76 30.02        
Aug 07 22:35 Calm 10 Clear CLR 74 74     100%   76 30.02        
Aug 07 22:15 Calm 10 Clear CLR 74 74     100%   76 30.02        
Aug 07 21:55 W 3 10 Clear CLR 74 74     99%   76 30.01     0  
Aug 07 21:35 Calm 10 Partly Cloudy SCT120 75 74     97%   76 30.01        
Aug 07 21:15 Calm 10 Mostly Cloudy BKN120 75 74     99%   76 30.01        
Aug 07 20:55 W 3 10 Mostly Cloudy SCT100 BKN120 75 75     100%   77 30.01   0    
Aug 07 20:35 SSW 3 10 Mostly Cloudy SCT075 BKN100 BKN120 75 74     97%   77 30   0    
Aug 07 20:15 S 5 10 Light Rain SCT075 SCT090 SCT110 75 74     98%   76 30   0    
Aug 07 19:55 Calm 10 Clear CLR 75 74     98%   76 29.98   0    
Aug 07 19:35 Calm 10 Light Drizzle SCT029 SCT050 BKN080 76 75     98%   77 29.98   0    
Aug 07 19:15 W 6 2 Light Rain SCT036 BKN050 OVC095 77 75     95%   78 29.99   0    
Aug 07 18:55 S 3 7 Light Rain SCT032 SCT050 BKN085 77 75     95%   78 29.98   0   0
Aug 07 18:35 W 6 10 Mostly Cloudy SCT030 SCT050 BKN085 77 76     95%   79 29.97        
Aug 07 18:15 Calm 10 Light Drizzle SCT055 BKN085 OVC110 78 75     93%   79 29.98        
Aug 07 17:55 W 5 7 Light Rain SCT044 BKN055 OVC120 78 76     93%   81 29.98   0    
Aug 07 17:35 SW 7 10 Mostly Cloudy BKN046 84 74     74%   91 29.97        
Aug 07 17:15 S 3 10 Partly Cloudy SCT050 SCT065 84 75     74%   92 29.95        
Aug 07 16:55 S 9 10 Partly Cloudy SCT050 87 74     66%   96 29.95        
Aug 07 16:35 SW 3 10 Partly Cloudy SCT050 SCT085 90 72     57%   97 29.95        
Aug 07 16:15 Calm 10 Partly Cloudy SCT050 SCT060 SCT085 90 73     58%   98 29.95        
Aug 07 15:55 SW 3 10 Partly Cloudy SCT060 90 72     56%   98 29.94        
Aug 07 15:35 SSW 5 10 Partly Cloudy SCT046 SCT055 SCT070 92 73     55%   101 29.95        
Aug 07 15:15 S 3 10 Mostly Cloudy SCT048 SCT060 BKN070 91 73     57%   100 29.96        
Aug 07 14:55 S 3 10 Mostly Cloudy SCT047 BKN055 91 74     58%   100 29.96        
Aug 07 14:35 SW 5 10 Partly Cloudy SCT046 SCT065 91 73     57%   100 29.97        
Aug 07 14:15 Calm 10 Partly Cloudy SCT041 SCT049 SCT060 90 74     58%   100 29.97        
Aug 07 13:55 SSW 3 10 Partly Cloudy SCT039 SCT044 SCT049 88 74     62%   97 29.98        
Aug 07 13:35 WSW 8 10 Partly Cloudy SCT036 SCT042 90 73     57%   99 29.98        
Aug 07 13:15 SW 3 10 Partly Cloudy SCT036 89 75     63%   98 29.99        
Aug 07 12:55 WSW 6 10 Partly Cloudy SCT036 SCT044 88 74     63%   97 30        
Aug 07 12:35 W 9 10 Clear CLR 89 73     60%   97 30.01        
Aug 07 12:15 WSW 7 10 Partly Cloudy SCT030 SCT034 88 75     65%   98 30.02        
Aug 07 11:55 W 7 10 Mostly Cloudy SCT028 BKN035 BKN045 85 77     75%   96 30.02        
Aug 07 11:35 WNW 6 10 Cloudy BKN028 OVC036 85 77     78%   96 30.03        
Aug 07 11:15 Calm 10 Cloudy BKN024 OVC037 86 76     72%   96 30.03        
Aug 07 10:55 WSW 6 10 Mostly Cloudy BKN022 BKN029 BKN037 85 75     74%   93 30.03        
Aug 07 10:35 SW 5 10 Partly Cloudy SCT018 SCT026 SCT041 84 76     79%   93 30.03        
Aug 07 10:15 Calm 10 Mostly Cloudy SCT018 SCT025 BKN040 83 77     81%   92 30.03        
Aug 07 09:55 SSW 3 10 Mostly Cloudy SCT018 BKN026 BKN031 82 76     82%   90 30.03        
Aug 07 09:35 SW 3 10 Cloudy SCT014 OVC024 81 76     85%   88 30.03        
Aug 07 09:15 WSW 7 10 Cloudy BKN012 OVC021 81 76     85%   87 30.03        
Aug 07 08:55 WSW 3 10 Cloudy BKN012 OVC019 80 76     88%   85 30.02        
Aug 07 08:35 Calm 10 Cloudy OVC010 79 77     93%   84 30.02        
Aug 07 08:15 Calm 10 Cloudy OVC008 79 77     93%   83 30.03        
Aug 07 07:55 Calm 10 Cloudy OVC008 78 76     95%   80 30.02        
Aug 07 07:35 Calm 10 Cloudy OVC008 77 76     98%   79 30.01        
Aug 07 07:15 SW 3 10 Cloudy OVC006 76 76     99%   78 30.02        
Aug 07 06:55 SSW 5 10 Cloudy OVC006 76 76     100%   78 30.01        
Aug 07 06:35 SSW 3 7 Cloudy OVC004 75 75     100%   77 30.01        
Aug 07 06:15 SSW 3 7 Cloudy OVC004 75 75     100%   77 30.01        
Aug 07 05:55 Calm 7 Cloudy OVC004 75 75     100%   77 30.01        
Aug 07 05:35 Calm 10 Cloudy OVC004 75 75     100%   77 30.01        
Aug 07 05:15 Calm 10 Cloudy OVC004 75 75     100%   77 30.01        
Aug 07 04:55 Calm 10 Cloudy OVC006 75 75     100%   77 30.01        
Aug 07 04:35 Calm 10 Cloudy OVC008 75 75     100%   77 30.01        
Aug 07 04:15 Calm 10 Cloudy OVC008 74 74     100%   76 30.01        
Aug 07 03:55 Calm 10 Mostly Cloudy BKN008 74 74     100%   76 30.01        
Aug 07 03:35 Calm 10 Cloudy OVC008 75 75     99%   77 30.01        
Aug 07 03:15 Calm 10 Cloudy OVC008 75 75     99%   77 30.01        
Aug 07 02:55 Calm 10 Cloudy OVC008 75 75     98%   77 30.01        
Aug 07 02:35 Calm 10 Cloudy OVC010 76 75     99%   77 30.01        
Aug 07 02:15 S 5 10 Cloudy OVC010 75 75     99%   77 30.02        
Aug 07 01:55 Calm 10 Cloudy OVC012 76 75     98%   78 30.02        
Aug 07 01:35 Calm 10 Cloudy OVC012 75 75     100%   77 30.02        
Aug 07 01:15 Calm 10 Cloudy BKN012 OVC017 75 75     100%   77 30.02        
Aug 07 00:55 Calm 10 Cloudy SCT017 BKN028 OVC047 75 75     100%   77 30.02        
Aug 07 00:35 Calm 10 Cloudy BKN028 BKN039 OVC047 75 75     100%   77 30.02        
Aug 07 00:15 Calm 10 Mostly Cloudy SCT028 BKN035 BKN110 75 75     100%   77 30.02        
Aug 06 23:55 Calm 10 Partly Cloudy SCT110 75 75     100%   77 30.02        
Aug 06 23:35 Calm 10 Partly Cloudy SCT029 SCT041 SCT120 76 75     96%   78 30.02        
Aug 06 23:15 WNW 6 10 Mostly Cloudy SCT029 BKN043 SCT060 75 75     100%   77 30.03        
Aug 06 22:55 Calm 10 Mostly Cloudy BKN045 BKN050 BKN060 76 75     99%   77 30.03        
Aug 06 22:35 Calm 10 Mostly Cloudy SCT036 BKN042 BKN050 75 75     100%   77 30.03        
Aug 06 22:15 Calm 10 Partly Cloudy SCT036 SCT042 SCT060 75 75     100%   77 30.02        
Aug 06 21:55 Calm 10 Partly Cloudy SCT042 SCT048 SCT060 75 75     100%   77 30.01        
Aug 06 21:35 Calm 10 Mostly Cloudy BKN042 BKN055 BKN075 75 75     100%   77 30.01        
Aug 06 21:15 Calm 10 Mostly Cloudy SCT044 BKN050 BKN065 75 75     100%   77 30.01        
Aug 06 20:55 Calm 10 Cloudy SCT046 BKN060 OVC100 75 75     100%   77 30        
Aug 06 20:35 Calm 10 Partly Cloudy SCT060 SCT075 SCT095 75 74     99%   76 29.99        
Aug 06 20:15 Calm 10 Clear CLR 75 74     99%   76 29.99        
Aug 06 19:55 Calm 10 Clear CLR 76 75     98%   78 29.98        
Aug 06 19:35 Calm 10 Clear CLR 76 75     96%   78 29.98        
Aug 06 19:15 Calm 10 Partly Cloudy SCT100 78 75     92%   79 29.98        
Aug 06 18:55 Calm 10 Partly Cloudy SCT090 78 75     90%   79 29.98       0
Aug 06 18:35 Calm 10 Partly Cloudy SCT060 SCT090 78 74     87%   80 29.97        
Aug 06 18:15 Calm 10 Partly Cloudy SCT110 78 73     85%   80 29.98        
Aug 06 17:55 Calm 10 Mostly Cloudy BKN100 BKN120 78 73     85%   80 29.98        
Aug 06 17:35 Calm 10 Light Drizzle SCT035 SCT041 BKN090 78 74     88%   80 29.98        
Aug 06 17:15 Calm 10 Mostly Cloudy SCT040 BKN070 BKN095 78 74     89%   80 29.99        
Aug 06 16:55 Calm 10 Mostly Cloudy BKN070 77 74     89%   79 29.99        
Aug 06 16:35 Calm 10 Mostly Cloudy SCT045 BKN060 BKN120 77 74     91%   78 30        
Aug 06 16:15 Calm 10 Light Rain SCT039 SCT050 BKN070 76 74     91%   78 30.01        
Aug 06 15:55 Calm 10 Light Rain SCT050 BKN075 OVC095 77 73     89%   78 30.01   0 0  
Aug 06 15:35 Calm 10 Cloudy SCT080 OVC095 76 74     92%   78 30        
Aug 06 15:15 SW 3 10 Light Rain SCT055 SCT070 OVC110 76 73     91%   77 30.01        
Aug 06 14:55 SW 11 10 Cloudy SCT049 BKN060 OVC110 82 72     72%   86 30.02        
Aug 06 14:35 SSE 8 10 Cloudy SCT045 BKN070 OVC110 84 72     68%   90 30.01        
Aug 06 14:15 S 9 10 Cloudy BKN047 OVC100 90 72     56%   98 29.98        
Aug 06 13:55 SSW 7 10 Mostly Cloudy SCT046 SCT065 BKN100 88 72     60%   95 29.99        
Aug 06 13:35 S 6 10 Mostly Cloudy SCT046 SCT065 BKN090 90 73     59%   98 30.01        
Aug 06 13:15 SSW 6 10 Mostly Cloudy SCT046 SCT070 BKN110 88 72     59%   95 30.01        
Aug 06 12:55 S 8 10 Mostly Cloudy SCT070 BKN095 89 72     58%   95 30.02        
Aug 06 12:35 SSW 6 10 Partly Cloudy SCT036 SCT049 SCT060 88 72     60%   96 30.03        
Aug 06 12:15 SSW 7 10 Mostly Cloudy SCT036 BKN049 BKN080 86 73     65%   94 30.03        
Aug 06 11:55 SSE 8 10 Mostly Cloudy SCT034 BKN046 BKN080 87 74     65%   94 30.03        
Aug 06 11:35 SSW 3 10 Cloudy SCT027 SCT034 OVC080 86 73     67%   93 30.04        
Aug 06 11:15 SSW 7 10 Cloudy SCT027 BKN033 OVC080 85 74     71%   92 30.03        
Aug 06 10:55 SSE 8 10 Cloudy SCT023 BKN031 OVC042 85 75     71%   94 30.04        
Aug 06 10:35 SSW 3 10 Mostly Cloudy SCT017 BKN021 BKN028 84 76     75%   93 30.04        
Aug 06 10:15 SE 6 10 Cloudy BKN015 OVC022 83 76     78%   91 30.04        
Aug 06 09:55 Calm 10 Cloudy BKN015 BKN070 OVC085 81 75     82%   88 30.04        
Aug 06 09:35 Calm 10 Cloudy SCT012 BKN060 OVC085 81 76     83%   88 30.04        
Aug 06 09:15 S 5 10 Cloudy BKN008 OVC060 80 76     88%   85 30.05        
Aug 06 08:55 SE 5 10 Cloudy OVC008 77 75     94%   79 30.05        
Aug 06 08:35 SSE 5 10 Cloudy OVC006 76 75     96%   78 30.06        
Aug 06 08:15 SSE 5 10 Cloudy OVC004 76 75     98%   77 30.06        
Aug 06 07:55 Calm 7 Cloudy OVC004 75 75     99%   77 30.07        
Aug 06 07:35 Calm 10 Cloudy OVC004 74 74     100%   76 30.06        
Aug 06 07:15 Calm 10 Cloudy OVC004 73 73     100%   75 30.06        
Aug 06 06:55 Calm 10 Mostly Cloudy BKN004 72 72     100%   74 30.05        
Aug 06 06:35 Calm 7 Mostly Cloudy SCT004 BKN022 72 72     100%   74 30.04        
Aug 06 06:15 Calm 7 Mostly Cloudy BKN020 72 72     100%   73 30.04        
Aug 06 05:55 Calm 7 Cloudy OVC016 71 71     100%   73 30.04        
Aug 06 05:35 Calm 7 Cloudy SCT009 OVC014 71 71     100%   73 30.03        
Aug 06 05:15 Calm 7 Partly Cloudy SCT009 SCT014 71 71     100%   73 30.03        
Aug 06 04:55 Calm 10 Partly Cloudy SCT002 72 72     100%   73 30.03        
Aug 06 04:35 Calm 7 Partly Cloudy SCT002 71 71     100%   73 30.02        
Aug 06 04:15 Calm 7 Clear CLR 71 71     100%   73 30.02        
Aug 06 03:55 Calm 7 Clear CLR 72 72     100%   73 30.01        
Aug 06 03:35 Calm 7 Clear CLR 72 72     100%   73 30.01        
Aug 06 03:15 Calm 10 Clear CLR 72 72     100%   73 30.01        
Aug 06 02:55 Calm 7 Clear CLR 72 72     100%   74 30.01        
Aug 06 02:35 Calm 7 Clear CLR 72 72     100%   74 30.01        
Aug 06 02:15 Calm 10 Clear CLR 72 72     100%   74 30        
Aug 06 01:55 Calm 7 Clear CLR 72 72     100%   74 30        
Aug 06 01:35 Calm 10 Clear CLR 73 73     100%   74 29.99        
Aug 06 01:15 Calm 10 Clear CLR 73 73     100%   75 30        
Aug 06 00:55 Calm 7 Clear CLR 73 73     100%   75 30        
Aug 06 00:35 Calm 10 Clear CLR 73 73     100%   75 30.01        
Aug 06 00:15 Calm 10 Clear CLR 74 74     100%   76 30.01        
Aug 05 23:55 Calm 7 Clear CLR 74 74     100%   75 30.01        
Aug 05 23:35 Calm 10 Clear CLR 74 74     99%   76 30.01        
Aug 05 23:15 Calm 10 Clear CLR 75 74     98%   76 30.02        
Aug 05 22:55 Calm 10 Clear CLR 75 74     96%   77 30.02        
Aug 05 22:35 Calm 10 Clear CLR 75 74     97%   77 30.02        
Aug 05 22:15 Calm 10 Clear CLR 76 74     95%   78 30.03        
Aug 05 21:55 Calm 10 Clear CLR 76 75     96%   78 30.02        
Aug 05 21:35 Calm 10 Clear CLR 76 75     95%   78 30.02        
Aug 05 21:15 Calm 10 Clear CLR 77 75     94%   79 30.02        
Aug 05 20:55 Calm 10 Clear CLR 78 75     91%   79 30.02        
Aug 05 20:35 Calm 10 Clear CLR 79 75     88%   83 30.02        
Aug 05 20:15 Calm 10 Clear CLR 81 75     84%   86 30.01        
Aug 05 19:55 Calm 10 Clear CLR 82 74     77%   89 30.01        
Aug 05 19:35 Calm 10 Partly Cloudy SCT048 83 74     73%   90 30        
Aug 05 19:15 SSE 5 10 Clear CLR 85 73     67%   91 30        
Aug 05 18:55 Calm 10 Clear CLR 88 70     56%   93 29.99        
Aug 05 18:35 W 3 10 Clear CLR 89 70     53%   94 30        
Aug 05 18:15 W 3 10 Clear CLR 89 72     57%   96 30        
Aug 05 17:55 Calm 10 Clear CLR 89 71     55%   96 30        
Aug 05 17:35 Calm 10 Partly Cloudy SCT048 90 71     54%   95 30        
Aug 05 17:15 Calm 10 Clear CLR 90 70     52%   95 30        
Aug 05 16:55 SSW 3 10 Partly Cloudy SCT048 89 71     56%   95 30.01        
Aug 05 16:35 Calm 10 Partly Cloudy SCT048 89 70     54%   94 30        
Aug 05 16:15 Calm 10 Clear CLR 90 71     53%   97 30.01        
Aug 05 15:55 Calm 10 Clear CLR 90 71     54%   97 30.01        
Aug 05 15:35 WSW 6 10 Partly Cloudy SCT049 91 70     51%   97 30.01        
Aug 05 15:15 SW 3 10 Clear CLR 89 72     57%   96 30.02        
Aug 05 14:55 S 3 10 Partly Cloudy SCT042 90 73     57%   98 30.02        
Aug 05 14:35 SSE 3 10 Partly Cloudy SCT042 89 72     57%   96 30.02        
Aug 05 14:15 S 3 10 Partly Cloudy SCT039 89 72     57%   96 30.03        
Aug 05 13:55 SSW 5 10 Clear CLR 89 72     58%   95 30.04        
Aug 05 13:35 S 3 10 Clear CLR 89 72     59%   96 30.04        
Aug 05 13:15 S 3 10 Partly Cloudy SCT045 SCT050 88 72     60%   95 30.05        
Aug 05 12:55 S 3 10 Partly Cloudy SCT031 SCT041 SCT050 88 74     64%   96 30.06        
Aug 05 12:35 S 3 10 Partly Cloudy SCT029 SCT043 87 74     66%   96 30.06        
Aug 05 12:15 ESE 3 10 Partly Cloudy SCT029 86 74     67%   93 30.06        
Aug 05 11:55 S 5 10 Mostly Cloudy BKN029 85 73     68%   92 30.06        
Aug 05 11:35 SSW 3 10 Mostly Cloudy BKN025 BKN030 84 74     71%   92 30.06        
Aug 05 11:15 Calm 10 Partly Cloudy SCT025 85 74     71%   93 30.07        
Aug 05 10:55 Calm 10 Partly Cloudy SCT019 84 74     73%   91 30.07        
Aug 05 10:35 Calm 10 Partly Cloudy SCT017 82 74     76%   89 30.08        
Aug 05 10:15 Calm 10 Mostly Cloudy BKN017 82 74     79%   88 30.08        
Aug 05 09:55 Calm 10 Mostly Cloudy BKN015 80 74     80%   85 30.08        
Aug 05 09:35 Calm 10 Partly Cloudy SCT015 81 74     80%   86 30.08        
Aug 05 09:15 Calm 10 Mostly Cloudy BKN013 79 73     82%   82 30.08        
Aug 05 08:55 SE 3 10 Mostly Cloudy BKN011 79 73     84%   82 30.08        
Aug 05 08:35 Calm 10 Partly Cloudy SCT011 77 73     87%   78 30.07        
Aug 05 08:15 Calm 10 Mostly Cloudy BKN011 75 73     92%   77 30.07        
Aug 05 07:55 Calm 10 Partly Cloudy SCT007 75 73     92%   77 30.06        
Aug 05 07:35 Calm 10 Mostly Cloudy BKN007 74 74     97%   76 30.05        
Aug 05 07:15 Calm 10 Cloudy OVC007 74 74     99%   76 30.05        
Aug 05 06:55 Calm 7 Cloudy OVC003 74 74     100%   75 30.04        
Aug 05 06:35 NW 3 3 Fog/Mist OVC003 73 73     100%   75 30.03        
Aug 05 06:15 Calm 1.25 Fog/Mist OVC003 73 73     100%   75 30.03        
Aug 05 05:55 Calm 2 Fog/Mist OVC003 74 74     100%   75 30.03        
Aug 05 05:35 Calm 2 Fog/Mist OVC003 74 74     100%   75 30.02        
Aug 05 05:15 Calm 5 Fog/Mist OVC003 74 74     100%   75 30.02        
Aug 05 04:55 Calm 7 Cloudy OVC003 74 74     100%   75 30.02        
Aug 05 04:35 Calm 10 Cloudy OVC003 74 74     100%   75 30.01        
Aug 05 04:15 Calm 10 Cloudy OVC005 73 73     100%   75 30.01        
Aug 05 03:55 Calm 7 Cloudy OVC005 73 73     100%   75 30        
Aug 05 03:35 Calm 10 Cloudy OVC007 72 72     100%   74 30        
Aug 05 03:15 Calm 10 Cloudy OVC007 72 72     100%   74 30.01        
Aug 05 02:55 Calm 10 Cloudy OVC009 73 73     100%   74 30.01        
Aug 05 02:35 WNW 3 10 Mostly Cloudy BKN009 73 73     100%   74 30.01        
Aug 05 02:15 Calm 10 Partly Cloudy SCT009 73 73     100%   75 30.01        
Aug 05 01:55 Calm 10 Clear CLR 73 73     100%   75 30.01        
Aug 05 01:35 Calm 5 Fog/Mist CLR 73 73     100%   75 30.01        
Aug 05 01:15 Calm 7 Clear CLR 73 73     100%   75 30.01        
Aug 05 00:55 Calm 10 Clear CLR 74 74     100%   75 30.01        
Aug 05 00:35 Calm 10 Clear CLR 74 74     100%   76 30.01        
Aug 05 00:15 Calm 10 Clear CLR 74 74     100%   76 30.01        
Aug 04 23:55 Calm 10 Partly Cloudy SCT009 75 74     98%   77 30.01        
Aug 04 23:35 Calm 10 Cloudy OVC009 75 75     98%   77 30.01        
Aug 04 23:15 Calm 10 Cloudy OVC011 75 74     97%   77 30.01        
Aug 04 22:55 Calm 10 Mostly Cloudy BKN011 BKN015 75 75     98%   77 30.02        
Aug 04 22:35 Calm 10 Mostly Cloudy BKN011 BKN015 76 74     96%   77 30.02        
Aug 04 22:15 Calm 10 Mostly Cloudy SCT011 BKN065 76 74     96%   78 30.03        
Aug 04 21:55 Calm 10 Mostly Cloudy BKN065 76 74     94%   78 30.02        
Aug 04 21:35 S 3 10 Mostly Cloudy BKN065 76 74     93%   78 30.01        
Aug 04 21:15 Calm 10 Partly Cloudy SCT065 77 74     91%   79 30.01        
Aug 04 20:55 S 3 10 Clear CLR 77 74     90%   79 30.01        
Aug 04 20:35 Calm 10 Clear CLR 78 74     86%   81 30        
Aug 04 20:15 S 3 10 Partly Cloudy SCT027 SCT035 79 75     87%   82 30        
Aug 04 19:55 Calm 10 Mostly Cloudy SCT027 BKN035 80 75     84%   85 30        
Aug 04 19:35 Calm 10 Partly Cloudy SCT070 81 74     81%   86 30        
Aug 04 19:15 Calm 10 Partly Cloudy SCT070 82 74     78%   88 30        
Aug 04 18:55 Calm 10 Clear CLR 82 74     77%   89 30        
Aug 04 18:35 Calm 10 Partly Cloudy SCT029 SCT035 84 75     76%   92 29.99        
Aug 04 18:15 Calm 10 Mostly Cloudy BKN029 BKN035 83 75     78%   90 29.99        
Aug 04 17:55 S 6 10 Partly Cloudy SCT075 84 75     75%   91 29.98        
Aug 04 17:35 SSE 5 10 Partly Cloudy SCT075 85 75     72%   94 29.98        
Aug 04 17:15 SSE 6 10 Clear CLR 85 76     74%   94 29.98        
Aug 04 16:55 S 7 10 Mostly Cloudy SCT027 BKN041 85 75     72%   95 29.97        
Aug 04 16:35 SSE 9 10 Mostly Cloudy SCT025 BKN041 86 76     71%   96 29.97        
Aug 04 16:15 SE 5 10 Clear CLR 88 72     59%   95 29.98        
Aug 04 15:55 Calm 10 Clear CLR 87 71     59%   92 29.98        
Aug 04 15:35 Calm 10 Partly Cloudy SCT039 87 71     58%   93 29.98        
Aug 04 15:15 SSW 3 10 Clear CLR 88 72     61%   95 29.98        
Aug 04 14:55 S 3 10 Clear CLR 87 71     59%   93 30        
Aug 04 14:35 Calm 10 Partly Cloudy SCT070 87 72     62%   93 30        
Aug 04 14:15 Calm 10 Cloudy SCT050 OVC070 85 71     64%   90 30.01        
Aug 04 13:55 Calm 10 Cloudy SCT034 BKN055 OVC080 84 71     65%   90 30.02        
Aug 04 13:35 Calm 10 Cloudy SCT034 OVC055 85 71     64%   90 30.02        
Aug 04 13:15 Calm 10 Mostly Cloudy SCT030 SCT037 BKN055 86 71     62%   91 30.03        
Aug 04 12:55 Calm 10 Partly Cloudy SCT028 SCT037 SCT075 84 72     68%   89 30.03        
Aug 04 12:35 ENE 3 10 Cloudy BKN030 BKN035 OVC050 83 72     68%   89 30.04        
Aug 04 12:15 ENE 3 10 Cloudy SCT030 BKN050 OVC080 85 72     66%   91 30.05        
Aug 04 11:55 Calm 10 Cloudy SCT030 OVC080 83 71     67%   87 30.06        
Aug 04 11:35 E 3 10 Mostly Cloudy SCT028 BKN080 82 71     69%   86 30.06        
Aug 04 11:15 Calm 10 Mostly Cloudy SCT024 BKN080 83 71     69%   87 30.07        
Aug 04 10:55 Calm 10 Mostly Cloudy BKN024 BKN080 82 72     73%   86 30.07        
Aug 04 10:35 Calm 10 Mostly Cloudy SCT020 SCT024 BKN085 79 72     79%   82 30.06        
Aug 04 10:15 Calm 10 Cloudy SCT016 SCT021 OVC085 80 72     76%   83 30.06        
Aug 04 09:55 Calm 10 Cloudy SCT014 OVC085 78 72     83%   80 30.06        
Aug 04 09:35 Calm 10 Cloudy SCT012 OVC085 77 73     86%   79 30.06        
Aug 04 09:15 Calm 10 Cloudy SCT008 OVC085 76 73     88%   78 30.06        
Aug 04 08:55 W 3 10 Cloudy BKN008 OVC085 76 73     91%   77 30.07        
Aug 04 08:35 WNW 3 10 Cloudy BKN006 BKN070 OVC085 75 73     94%   77 30.08        
Aug 04 08:15 Calm 10 Cloudy BKN006 BKN055 OVC075 74 74     97%   76 30.07        
Aug 04 07:55 Calm 10 Cloudy SCT006 BKN055 OVC075 74 74     99%   76 30.07        
Aug 04 07:35 Calm 10 Cloudy SCT055 OVC085 74 73     97%   76 30.07        
Aug 04 07:15 Calm 10 Cloudy SCT005 OVC085 74 74     100%   75 30.06        
Aug 04 06:55 Calm 10 Cloudy BKN005 BKN032 OVC085 73 73     100%   75 30.06        
Aug 04 06:35 Calm 10 Cloudy SCT005 BKN010 OVC032 73 73     100%   75 30.05        
Aug 04 06:15 Calm 10 Cloudy OVC010 73 73     100%   75 30.05        
Aug 04 05:55 Calm 10 Cloudy OVC008 73 73     100%   75 30.05        
Aug 04 05:35 Calm 10 Cloudy OVC004 73 73     100%   75 30.05        
Aug 04 05:15 Calm 10 Cloudy OVC004 73 73     100%   74 30.05        
Aug 04 04:55 Calm 7 Drizzle OVC006 73 73     100%   74 30.04        
Jun 12 07:15 ENE 3 10 Partly Cloudy SCT011 SCT019 73 72     95%   75 30.14        
Jun 12 04:55 Calm 10 Clear CLR 69 69     100%     30.11        
Notice The following observation data may not be complete
Jun 12 03:35   10 Clear CLR          %              
Jun 12 02:55 Calm 10 Clear CLR 71 71     100%   72 30.11        
Jun 12 02:35 Calm 10 Partly Cloudy SCT080 71 71     100%   73 30.11        
Jun 11 22:55 Calm 10 Partly Cloudy SCT100 75 73     92%   77 30.13        
Notice The following observation data may not be complete
Jun 11 22:15   10 Clear CLR          %              
Jun 11 18:15 Calm 10 Clear CLR 80 72     75%   84 30.06        
Jun 11 14:35 E 10 10 Partly Cloudy SCT050 SCT065 90 70     52%   95 30.09        
Jun 11 11:55 SE 9 10 Partly Cloudy SCT038 86 70     59%   91 30.13        
Jun 11 02:35 Calm 10 Partly Cloudy SCT055 SCT065 66 65     97%     30.06        
Jun 10 18:35 SE 5 10 Partly Cloudy SCT080 84 64     51%   86 30.01        
Jun 10 12:55 SSE 6 10 Partly Cloudy SCT055 SCT075 83 61     47%   84 30.07        
Jun 10 11:15 S 5 10 Clear CLR 84 62     48%   84 30.08        
Jun 10 08:15 Calm 10 Clear CLR 75 69     81%   76 30.06        
Jun 10 03:55 Calm 10 Mostly Cloudy SCT065 BKN075 66 65     96%     29.99        
Notice The following observation data may not be complete
Jun 09 22:35   10 Mostly Cloudy BKN060 BKN075          %              
Jun 09 16:55 Calm 10 Partly Cloudy SCT075 84 59     43%   84 29.91        
Jun 09 06:15 Calm 10 Clear CLR 60 60     100%     29.93        
Notice The following observation data may not be complete
Jun 09 02:35   10 Clear CLR          %              
Jun 08 13:55 Calm 10 Mostly Cloudy SCT060 SCT070 BKN080 79 59     50%   79 29.88        
Jun 08 07:55 Calm 10 Partly Cloudy SCT002 69 61     75%     29.9        
Jun 08 07:15 Calm 10 Clear CLR 65 60     82%     29.9        
Jun 08 03:15 Calm 10 Mostly Cloudy BKN060 64 57     76%     29.83        
Jun 07 22:35 N 3 10 Cloudy SCT060 OVC090 71 62     72%   71 29.85        
Jun 07 15:15 Calm 10 Cloudy BKN039 BKN044 OVC085 80 69     68%   83 29.76        
Jun 07 14:55 E 13 10 Mostly Cloudy SCT037 BKN043 BKN048 82 69     65%   86 29.76        
Jun 07 10:55 ENE 9 10 Clear   79 67     67%   80 29.77        
Jun 07 07:35 NNE 3 10 Clear CLR 70 67     89%     29.77        
Notice The following observation data may not be complete
Jun 06 08:35   10 Cloudy OVC006          %              
Notice The following observation data may not be complete
Jun 06 06:35   10 Cloudy SCT006 BKN024 OVC110          %              
Jun 05 15:15 S 5 10 Partly Cloudy SCT033 SCT060 SCT100 76 72     90%   77 29.79        
Jun 05 14:35 S 5 10 Light Rain BKN100 BKN120 75 71     89%   76 29.81